#timestamp,LO_Frequency,Hit,StdDev 
1513807215.3,286047000.4,N
1513807235.1,286046999.9,N
1513807255.9,286047001.7,N
1513807275.7,286047001.3,N
1513807295.5,286047001.5,N
1513807315.4,286047002.1,N
1513807335.2,286047001.6,N
1513807355.1,286047004.0,Y
1513807356.0,286047004.0,P
1513807375.8,286047002.0,N
1513807395.6,286047003.9,N
1513807415.5,286047002.6,N
1513807435.3,286046999.9,N
1513807455.2,286047001.7,N
1513807475.9,286047002.5,N
1513807495.7,286047000.6,N
1513807515.6,286046998.9,N
1513807535.4,286046998.4,N
1513807555.2,286046998.2,N
1513807575.1,286047002.2,N
1513807576.0,286047002.2,N
1513807595.8,286047004.2,N
1513807615.7,286047001.7,N
1513807635.5,286047001.7,N
1513807655.3,286047002.9,N
1513807675.2,286047004.1,N
1513807695.0,286047004.0,N
1513807695.9,286047004.0,N
1513807715.8,286046999.8,N
1513807735.6,286047000.5,N
1513807755.4,286047000.6,N
1513807775.3,286046998.4,N
1513807795.1,286047000.7,N
1513807815.8,286046998.8,N
1513807835.7,286046996.7,N
1513807855.5,286046997.0,N
1513807875.4,286046999.5,N
1513807895.2,286046999.0,N
1513807945.0,286047001.1,E
1513807955.9,286047000.5,N
1513807975.7,286047000.0,P
1513807995.5,286047002.4,P
1513808015.4,286046998.1,N
1513808035.2,286046999.4,N
1513808055.0,286046997.3,N
1513808056.0,286046997.3,N
1513808075.8,286046996.5,N
1513808095.6,286046996.9,N
1513808115.5,286046997.4,N
1513808135.3,286046997.4,N
1513808155.1,286046996.5,N
1513808175.9,286047000.4,N
1513808195.7,286047001.2,N
1513808215.6,286046998.6,N
1513808235.4,286046999.7,N
1513808255.2,286047002.2,N
1513808275.1,286047002.0,N
1513808276.0,286047002.0,N
1513808295.8,286047001.6,N
1513808315.6,286047002.8,N
1513808335.5,286046999.9,N
1513808355.3,286047000.1,N
1513808375.2,286047000.5,N
1513808395.9,286047000.7,N
1513808415.7,286046998.5,N
1513808435.6,286046999.0,N
1513808455.4,286046995.0,N
1513808475.3,286046997.5,N
1513808495.1,286046994.9,N
1513808496.0,286046994.9,N
1513808515.8,286046997.6,N
1513808535.7,286046994.9,N
1513808555.5,286046994.6,N
1513808575.3,286046993.9,N
1513808595.2,286046993.5,N
1513808615.0,286046994.7,N
1513808615.9,286046994.7,N
1513808635.8,286046997.2,N
1513808655.6,286046997.5,N
1513808675.4,286046997.3,N
1513808695.3,286046995.2,N
1513808715.1,286046997.7,N
1513808735.9,286046995.1,N
1513808755.7,286046999.5,N
1513808775.5,286046995.4,N
1513808795.4,286046996.8,N
1513808815.2,286046996.6,N
1513808835.0,286046998.9,N
1513808835.9,286046998.9,N
1513808855.8,286046998.9,N
1513808875.6,286046997.0,N
1513808895.5,286046999.4,N
1513808915.3,286046997.1,N
1513808935.1,286046998.8,N
1513808955.9,286046996.9,N
1513808975.7,286046996.6,N
1513808995.6,286046997.7,N
1513809015.4,286046997.5,N
1513809035.2,286046996.2,N
1513809055.1,286046996.0,N
1513809056.0,286046996.0,N
1513809075.8,286046994.0,Y
1513809095.6,286046997.3,P
1513809115.5,286046997.5,P
1513809135.3,286046997.5,P
1513809155.2,286046997.2,Y
1513809175.0,286047002.5,P
1513809175.9,286047002.5,N
1513809195.7,286047002.9,N
1513809215.6,286047002.9,N
1513809235.4,286047002.0,N
1513809255.3,286047001.0,N
1513809275.1,286046999.8,N
1513809276.0,286046999.8,N
1513809295.8,286047000.6,N
1513809315.7,286047001.1,N
1513809335.5,286047001.2,N
1513809355.3,286047000.5,N
1513809375.2,286047000.6,N
1513809395.0,286046998.4,N
1513809395.9,286046998.4,N
1513809415.8,286046996.5,N
1513809435.6,286047001.1,N
1513809455.4,286046999.2,N
1513809475.3,286046998.8,N
1513809495.1,286046998.8,N
1513809515.9,286046996.8,N
1513809535.7,286047001.1,N
1513809555.5,286047000.4,N
1513809575.4,286046998.4,N
1513809595.2,286046999.0,N
1513809615.0,286046999.3,N
1513809615.9,286046999.3,N
1513809635.8,286046999.2,N
1513809655.6,286046996.9,N
1513809675.5,286046998.5,N
1513809695.3,286047000.4,N
1513809715.1,286046998.3,N
1513809735.9,286046999.3,N
1513809755.7,286046999.1,N
1513809775.6,286046998.5,N
1513809795.4,286046998.6,N
1513809815.2,286046999.7,N
1513809835.1,286047002.7,N
1513809836.0,286047002.7,N
1513809855.8,286047002.8,N
1513809875.7,286047002.3,N
1513809895.5,286047002.7,N
1513809915.3,286047002.2,N
1513809935.2,286047002.8,N
1513809955.0,286047000.6,N
1513809955.9,286047000.6,N
1513809975.8,286047002.0,N
1513809995.6,286047001.7,N
1513810015.4,286047002.7,N
1513810035.3,286047000.0,N
1513810055.1,286047000.2,N
1513810075.8,286047002.6,N
1513810095.7,286047001.9,N
1513810115.5,286047002.1,N
1513810135.4,286046999.9,N
1513810155.2,286047002.3,N
1513810175.0,286047001.0,N
1513810175.9,286047001.0,N
1513810195.8,286047000.2,N
1513810215.6,286047002.3,N
1513810235.5,286047002.6,N
1513810255.3,286047003.2,N
1513810275.1,286047001.8,N
1513810295.9,286047001.9,N
1513810315.7,286047004.0,Y
1513810335.5,286047001.5,P
1513810355.4,286047001.8,P
1513810375.2,286047005.8,P
1513810395.1,286047004.2,N
1513810396.0,286047004.2,N
1513810415.8,286047001.8,N
1513810435.6,286047000.9,N
1513810455.5,286046998.7,N
1513810475.3,286046998.5,N
1513810495.2,286047002.3,N
1513810515.9,286047001.5,N
1513810535.7,286047003.8,N
1513810555.6,286047002.2,N
1513810575.4,286047001.9,N
1513810595.2,286047000.7,N
1513810615.1,286047001.2,N
1513810616.0,286047001.2,N
1513810635.8,286046998.4,N
1513810655.7,286047000.7,N
1513810675.5,286046999.2,N
1513810695.3,286046998.7,N
1513810715.2,286046998.2,N
1513810735.0,286047002.7,N
1513810735.9,286047002.7,N
1513810755.8,286047000.3,N
1513810775.6,286046998.7,N
1513810795.4,286046996.8,N
